EW1145 Weather Reports


Display with metric or nautical units.
time (UTC)temp
F
wind
direction
speed
MPH
gust
MPH
rain 1hr
in
rain 24hr
in
rain mn
in
humidity
%
barometer
mb
20260502223053 72 115 0.0 2.0 0.00 0.00 0.00 57 1012.1
20260502221555 72 105 0.0 6.0 0.00 0.00 0.00 58 1012.4
20260502220047 70 234 0.0 3.0 0.00 0.00 0.00 60 1012.6
20260502214553 67 92 0.0 5.0 0.00 0.00 0.00 64 1012.8
20260502213040 67 340 0.0 3.0 0.00 0.00 0.00 64 1012.9
20260502211536 65 49 0.0 3.0 0.00 0.00 0.00 67 1013.2
20260502210037 65 96 1.0 6.0 0.00 0.00 0.00 68 1013.4
20260502204530 63 242 0.0 5.0 0.00 0.00 0.00 69 1013.6
20260502203027 63 328 0.0 5.0 0.00 0.00 0.00 70 1014.0
20260502201524 61 168 0.0 2.0 0.00 0.00 0.00 73 1014.1
20260502200021 59 110 0.0 2.0 0.00 0.00 0.00 76 1014.4
20260502194530 56 117 0.0 7.0 0.00 0.00 0.00 81 1014.8
20260502193020 56 98 0.0 8.0 0.00 0.00 0.00 82 1014.5
20260502191518 57 82 0.0 8.0 0.00 0.00 0.00 78 1014.6
20260502190016 59 114 1.0 7.0 0.00 0.00 0.00 73 1015.2
20260502184521 59 86 0.0 5.0 0.00 0.00 0.00 74 1015.2
20260502183015 59 27 2.0 7.0 0.00 0.00 0.00 72 1015.2
20260502181526 59 78 0.0 2.0 0.00 0.00 0.00 71 1015.2
20260502163005 53 279 0.0 4.0 0.00 0.00 0.00 79 1016.0
20260502161501 52 337 1.0 6.0 0.00 0.00 0.00 79 1016.0
20260502151631 50 292 0.0 2.0 0.00 0.00 0.00 83 1015.8
20260502150106 49 5 0.0 4.0 0.00 0.00 0.00 83 1015.1
20260502123059 48 312 0.0 4.0 0.00 0.00 0.00 83 1015.8
20260502121549 48 360 0.0 3.0 0.00 0.00 0.00 83 1015.8
20260502114554 48 300 0.0 0.0 0.00 0.00 0.00 83 1015.8
20260502113051 48 300 0.0 0.0 0.00 0.00 0.00 82 1016.0
20260502111543 49 300 0.0 0.0 0.00 0.00 0.00 80 1015.7
20260502110042 49 300 0.0 0.0 0.00 0.00 0.00 79 1015.2
20260502104540 49 300 0.0 0.0 0.00 0.00 0.00 79 1015.6
20260502103040 49 300 0.0 1.0 0.00 0.00 0.00 78 1015.4
20260502101548 49 282 1.0 7.0 0.00 0.00 0.00 78 1015.4
20260502091530 50 25 0.0 0.0 0.00 0.00 0.00 76 1016.4
20260502071514 54 25 0.0 0.0 0.00 0.00 0.00 67 1016.4
20260502070012 54 25 0.0 0.0 0.00 0.00 0.00 66 1016.3
20260502064512 54 25 0.0 0.0 0.00 0.00 0.00 65 1016.4
20260502063011 54 25 0.0 6.0 0.00 0.00 0.00 65 1016.4
20260502061519 55 360 0.0 0.0 0.00 0.00 0.00 65 1016.4
20260502060011 55 26 0.0 1.0 0.00 0.00 0.00 63 1016.1
20260502054510 56 26 0.0 1.0 0.00 0.00 0.00 60 1016.0
20260502053009 57 331 0.0 0.0 0.00 0.00 0.00 59 1016.0
20260502051520 57 296 0.0 0.0 0.00 0.00 0.00 58 1015.9
20260502050009 58 82 0.0 1.0 0.00 0.00 0.00 57 1015.8
20260502044508 58 82 0.0 0.0 0.00 0.00 0.00 58 1015.5
20260502043009 59 82 0.0 0.0 0.00 0.00 0.00 57 1015.3
20260502041517 60 161 0.0 0.0 0.00 0.00 0.00 55 1015.1
20260502040012 60 54 0.0 5.0 0.00 0.00 0.00 54 1015.0
20260502034508 61 333 0.0 0.0 0.00 0.00 0.00 53 1014.9
20260502033007 61 31 0.0 7.0 0.00 0.00 0.00 52 1014.7
20260502031505 62 325 0.0 9.0 0.00 0.00 0.00 52 1014.4
20260502030004 63 36 0.0 6.0 0.00 0.00 0.00 52 1014.2
20260502024504 64 313 1.0 6.0 0.00 0.00 0.00 53 1014.0
20260502023003 65 48 1.0 7.0 0.00 0.00 0.00 52 1013.8
20260502021502 66 277 0.0 4.0 0.00 0.00 0.00 52 1013.5
20260502020004 67 296 0.0 10.0 0.00 0.00 0.00 52 1013.6
20260502014502 68 341 3.0 11.0 0.00 0.00 0.00 52 1013.6
20260502013001 69 40 1.0 10.0 0.00 0.00 0.00 54 1013.5
20260502011502 70 321 0.0 7.0 0.00 0.00 0.00 52 1013.6
20260502010112 70 309 0.0 9.0 0.00 0.00 0.00 53 1013.5
20260502004608 71 32 3.0 11.0 0.00 0.00 0.00 52 1013.6
20260502003105 72 302 0.0 9.0 0.00 0.00 0.00 51 1013.5
20260502001558 73 32 1.0 7.0 0.00 0.00 0.00 50 1013.4
20260502000057 73 25 0.0 5.0 0.00 0.00 0.00 50 1013.3
20260501234559 74 27 0.0 5.0 0.00 0.00 0.00 49 1013.3
20260501233057 74 39 0.0 5.0 0.00 0.00 0.00 50 1013.3
20260501231556 75 82 0.0 4.0 0.00 0.00 0.00 48 1013.3
20260501230059 74 61 0.0 4.0 0.00 0.00 0.00 47 1013.6
20260501224550 74 78 0.0 5.0 0.00 0.00 0.00 45 1013.9